RH
30 28 28 28 29 35 40 73 91 72 36 41 25 18 30 21 13 19 9 27 32 33 30 36 32 31 29 27 20 22 46 52 52 52 41 39 41 40 39 36 29 27 23 22 24 25 26 31 33
32 30 30 29 31 30 43 90 43 34 32 36 38 32 19 31 15 7 9 6 3 3 4 5 7 11 16 24 25 23 27 30 28 27 29 27 24 20 16 14 15 17 19 20 20 21 22 22 24
32 30 29 32 44 43 77 85 45 39 35 38 34 31 18 21 31 23 5 4 3 3 4 4 5 5 7 7 8 11 15 17 14 11 12 13 15 17 19 16 13 11 9 8 8 8 8 8 8
32 29 23 32 96 76 87 92 74 45 31 40 36 31 23 21 27 30 11 5 4 4 4 5 5 4 6 7 8 8 10 13 15 16 18 18 12 8 7 7 6 6 6 6 6 5 5 6 6
14 17 15 41 54 85 88 95 80 59 47 43 43 38 31 17 24 22 6 5 4 4 4 4 6 7 10 12 13 15 15 13 12 8 7 6 6 6 6 7 6 5 4 4 4 4 4 4 5
7 8 15 52 88 88 67 66 70 67 66 40 47 45 37 18 16 22 16 7 5 4 5 5 6 8 9 11 11 8 7 7 6 6 6 6 6 5 6 5 4 4 4 4 7 8 10 11 10
4 5 24 56 77 95 91 83 83 75 62 39 50 45 38 15 11 22 20 20 16 14 12 8 5 5 6 6 6 7 7 6 6 6 6 6 7 7 7 6 6 6 7 8 8 7 8 9 9
3 3 8 57 86 95 95 97 90 96 69 56 46 52 40 13 12 14 13 26 22 17 11 9 6 6 6 6 6 6 6 6 6 6 6 10 10 10 12 18 20 11 8 8 8 5 4 4 4
2 2 10 67 76 85 92 97 89 79 95 89 38 57 42 12 14 15 11 16 16 12 9 8 8 9 10 9 9 8 7 7 10 9 10 10 12 25 27 21 16 14 12 7 5 4 4 3 2
3 2 23 63 82 94 96 97 95 88 94 89 53 56 45 16 17 14 9 9 10 14 12 9 7 8 10 14 17 18 12 9 18 27 8 13 22 32 28 29 23 13 6 6 4 3 2 2 2
3 3 37 46 77 90 92 86 95 94 96 67 69 86 30 12 20 13 8 6 6 6 7 15 17 17 17 14 14 14 18 17 20 30 13 17 27 42 39 30 15 10 8 4 2 2 2 3 4
2 3 13 41 72 87 97 98 95 89 76 37 50 72 73 13 10 12 5 4 4 4 5 7 14 21 18 19 28 38 32 30 36 43 39 34 41 46 36 13 11 8 3 2 2 4 5 5 6
3 3 6 39 56 72 77 93 94 98 93 38 43 58 60 24 6 6 6 4 4 6 12 48 44 45 64 47 32 42 49 51 45 54 54 37 49 40 13 12 8 3 2 3 5 6 5 5 4
2 3 4 20 22 41 56 46 72 83 71 44 60 59 63 58 10 5 6 5 5 15 48 48 43 44 48 48 66 72 68 59 63 61 55 55 46 15 14 11 3 2 4 6 6 5 4 4 3
3 3 3 3 12 10 15 26 23 48 54 66 95 85 64 68 30 9 8 4 5 13 53 51 52 51 55 59 69 72 66 57 69 71 58 55 17 15 15 6 2 5 6 6 5 5 4 4 3
3 3 3 4 4 5 12 16 24 32 67 100 82 81 80 67 64 53 11 13 7 8 43 61 53 57 55 47 54 71 69 63 62 64 58 17 15 16 9 3 5 6 6 6 5 4 4 4 4
3 8 10 7 6 8 13 16 19 39 78 97 86 31 49 50 67 81 11 9 11 25 30 35 46 50 56 62 46 84 73 63 57 36 18 16 13 9 3 5 6 6 6 6 5 4 4 4 4
9 19 42 40 31 36 36 34 40 22 36 88 60 64 72 66 89 54 18 9 14 34 29 26 38 40 41 64 52 48 79 66 26 20 16 13 6 3 4 6 7 6 6 5 5 5 5 5 4
36 40 48 49 43 34 34 45 43 25 51 63 54 30 32 75 66 94 16 25 27 37 25 31 59 36 31 58 76 35 40 31 26 24 16 6 3 5 6 6 7 6 5 5 5 5 5 5 4
24 19 46 40 41 43 43 37 29 23 26 63 40 19 39 40 52 64 30 8 17 15 24 42 59 45 34 46 79 73 36 42 37 25 13 5 6 6 7 8 6 5 5 5 5 5 5 4 3
29 15 35 38 41 46 41 23 18 5 17 74 31 29 30 39 9 16 11 10 13 8 27 51 69 56 41 55 55 92 53 42 28 22 10 7 6 7 8 7 6 5 5 5 5 5 5 3 3
13 15 28 17 17 23 46 22 17 13 42 53 42 48 40 58 77 55 21 16 26 28 59 68 75 48 34 42 65 80 54 24 21 18 14 8 6 8 8 6 5 6 6 6 6 5 4 2 4
28 58 58 49 20 16 12 19 8 36 60 66 68 50 59 50 80 70 42 26 35 43 82 78 69 47 36 67 68 49 26 25 20 17 12 6 8 9 8 6 7 7 7 7 6 4 3 3 6
36 40 16 25 21 21 55 57 43 37 60 59 61 62 77 86 68 44 52 79 84 74 83 70 65 48 43 74 64 40 29 36 22 14 10 7 9 9 7 8 8 8 7 7 5 4 3 4 9
40 47 36 25 50 63 79 77 74 72 60 68 73 73 79 96 96 93 87 94 84 88 94 55 58 62 63 72 75 70 40 40 36 12 6 9 11 10 8 9 10 8 8 6 5 4 3 6 13
88 100 90 82 73 94 93 83 97 95 85 86 98 78 93 94 89 92 95 80 80 57 73 71 75 75 73 56 48 75 50 29 39 15 9 13 11 11 10 10 10 9 7 5 4 4 5 8 14
58 63 97 86 70 64 83 87 94 96 89 81 93 82 79 78 80 96 96 73 35 82 72 80 81 65 63 66 66 71 49 34 40 17 24 25 11 12 11 11 10 10 7 5 4 4 7 14 17
77 39 56 94 55 68 56 63 81 88 99 91 78 86 77 73 67 67 58 68 93 57 62 57 45 56 59 78 68 64 53 46 40 34 37 35 12 12 12 12 11 9 6 5 4 6 10 14 15
71 73 66 48 44 55 33 68 79 93 94 90 86 81 87 88 90 94 89 79 53 36 35 36 21 79 91 97 65 62 49 53 58 56 54 46 15 12 13 12 11 9 6 5 4 8 13 15 16
47 80 78 25 28 42 35 50 60 57 87 92 68 79 94 90 81 90 83 63 62 50 41 68 89 93 89 94 58 48 61 76 84 67 56 40 13 13 13 13 11 8 5 5 4 8 12 14 16
Wind_Speed
10 12 12 15 17 13 15 23 6 13 12 11 17 18 13 14 14 12 6 4 5 5 6 7 10 12 12 12 10 12 14 14 13 13 13 13 13 13 14 14 15 16 15 16 17 18 19 19 21
12 12 12 16 15 17 19 25 14 8 10 16 18 17 13 13 13 8 7 7 5 4 4 6 8 10 11 12 12 12 11 12 11 11 11 12 13 13 14 13 13 13 14 15 16 17 18 19 20
16 15 12 9 13 11 21 17 12 13 8 8 20 22 20 13 14 11 8 8 5 5 5 4 6 9 11 10 9 10 9 9 9 10 9 10 11 12 12 12 13 14 15 16 17 18 20 21 22
16 16 9 5 9 15 19 18 25 10 15 10 15 23 23 18 10 9 9 8 10 9 7 7 8 10 8 6 6 7 7 7 7 9 9 9 10 11 12 14 14 15 16 18 19 20 21 22 24
19 16 7 9 8 22 22 16 2 27 10 13 14 14 22 20 14 10 10 10 9 9 8 7 8 7 7 7 7 5 6 7 7 8 9 10 12 13 14 16 16 17 18 19 21 22 22 22 23
15 14 7 12 5 23 22 24 39 22 13 15 16 17 22 20 15 10 9 9 11 10 9 8 7 7 6 6 6 6 6 7 8 10 11 12 14 14 16 17 18 19 21 21 21 21 22 22 23
15 14 13 12 9 16 28 35 25 17 19 15 14 19 23 22 14 12 8 7 6 8 10 10 9 8 6 7 7 7 9 9 10 12 13 13 14 16 17 19 21 21 22 23 24 25 26 26 27
17 14 14 4 12 11 19 16 15 15 18 24 12 20 19 21 13 12 3 4 7 10 10 10 9 9 9 9 8 9 10 11 13 14 14 15 15 19 22 22 25 24 25 25 26 27 29 31 32
18 13 13 12 6 14 8 18 23 25 21 20 19 19 16 16 14 15 12 7 10 9 10 9 10 11 11 10 10 11 13 14 16 15 15 17 18 20 21 22 24 26 29 29 32 33 35 34 34
16 10 21 15 14 14 4 6 27 26 33 29 21 21 12 12 13 15 14 11 10 13 14 9 11 12 11 12 13 15 16 17 17 18 16 19 21 24 23 25 26 27 29 31 31 32 33 35 36
14 11 27 22 14 8 20 21 22 23 28 29 27 23 12 5 10 15 15 13 9 7 13 10 11 16 15 12 13 15 16 19 20 19 19 20 22 25 27 28 28 30 32 33 33 33 35 37 39
12 15 26 27 20 18 10 8 19 25 21 27 28 29 25 16 8 13 15 15 15 10 7 10 13 15 16 15 14 17 15 14 19 20 22 23 24 26 28 28 30 32 32 32 33 36 39 40 40
12 16 25 32 25 21 24 25 26 21 24 31 30 27 14 25 8 14 16 15 15 14 13 11 17 19 16 17 17 19 19 19 18 21 23 25 26 27 27 30 31 30 31 34 36 37 38 39 37
14 19 22 33 35 32 24 26 30 35 42 40 33 29 30 23 14 14 17 16 14 13 12 15 17 22 23 25 25 24 23 18 20 23 25 26 26 25 28 31 29 29 33 35 36 37 38 37 36
13 14 18 25 35 36 36 30 22 29 30 29 29 31 30 17 12 14 14 17 14 11 11 16 20 24 26 30 33 23 22 20 16 22 25 27 25 27 29 29 29 31 34 35 37 37 37 38 38
12 10 12 14 21 28 31 28 18 25 22 27 31 34 20 12 10 12 11 9 11 12 12 17 20 24 26 28 31 18 23 20 14 20 23 25 26 27 30 26 31 32 35 36 36 37 37 38 37
8 3 4 7 13 15 24 24 18 23 23 30 35 35 17 23 30 14 9 7 13 11 12 15 19 24 25 27 32 19 10 7 12 16 20 26 28 26 27 28 33 34 36 36 37 36 38 39 39
12 6 4 11 12 11 18 25 25 21 24 26 32 34 42 46 50 5 4 12 13 13 15 15 20 21 23 25 23 17 12 15 15 19 24 25 26 21 26 30 33 36 36 36 36 38 39 41 43
9 14 14 9 7 14 18 19 27 16 13 29 29 37 42 42 25 21 10 14 16 18 20 18 18 19 23 22 20 16 17 18 21 23 26 22 22 24 27 31 33 36 36 36 38 39 40 43 44
17 12 22 23 16 13 21 32 30 24 23 28 31 33 35 37 32 32 21 16 18 20 20 21 17 21 27 20 24 20 19 22 25 27 25 22 23 26 30 33 34 35 36 37 39 41 43 44 43
15 14 24 24 25 21 26 23 22 20 20 18 27 28 29 32 27 21 25 20 19 21 20 21 20 23 21 23 30 23 20 24 25 26 23 22 25 28 31 32 34 35 37 39 41 42 43 44 42
12 9 10 23 23 31 20 17 15 13 12 19 21 18 29 29 36 23 25 15 21 22 23 23 21 22 23 22 19 12 19 23 23 22 22 23 25 28 31 33 33 37 39 38 39 42 42 43 42
7 13 17 19 15 16 17 25 10 11 12 19 26 25 27 29 34 33 20 11 21 23 29 19 21 23 22 20 13 16 21 18 20 20 21 23 26 28 30 32 34 37 37 37 39 41 41 41 40
12 18 17 14 12 7 5 9 2 10 16 21 25 27 27 33 34 36 26 26 23 21 21 20 22 21 22 18 14 17 18 18 19 20 20 23 26 28 30 32 34 35 36 38 39 41 42 41 39
6 8 10 9 5 10 18 12 11 14 18 18 14 13 23 25 37 37 33 33 49 25 20 20 21 22 20 18 18 20 21 22 22 22 21 24 25 29 29 30 32 34 36 37 40 41 42 40 39
13 5 10 13 14 18 15 17 24 19 21 26 15 23 22 25 30 27 22 37 36 37 24 22 21 24 21 22 21 22 23 25 23 24 21 22 23 26 28 31 34 37 38 38 40 41 41 41 39
9 16 15 16 15 20 13 21 33 25 32 36 17 29 35 35 35 24 23 35 40 28 26 20 21 22 23 24 22 23 23 24 23 24 25 25 25 27 30 33 36 38 38 38 40 41 39 38 37
10 14 21 23 26 26 19 27 24 25 25 35 32 30 40 45 44 41 41 41 42 34 22 26 20 23 23 22 20 22 24 24 25 24 25 26 26 28 30 33 35 36 38 39 40 40 38 39 38
14 20 18 17 28 28 22 23 26 32 12 23 32 37 39 40 39 21 34 36 37 34 21 25 24 24 23 20 22 23 24 25 26 26 25 27 27 28 29 32 34 36 37 39 40 38 38 39 40
24 25 25 22 20 31 32 20 18 28 36 26 36 39 50 31 37 43 27 40 34 23 21 21 23 19 20 20 22 22 22 26 27 28 27 26 26 27 28 32 34 35 37 39 39 38 38 40 40
Wind_Direction
270 278 294 296 313 319 308 346 354 17 22 342 351 6 354 339 345 15 333 299 291 280 272 261 265 267 268 268 267 263 263 261 266 272 278 283 282 281 279 281 282 283 288 291 291 291 291 292 292
263 273 287 298 319 313 329 343 49 50 41 343 351 348 344 343 340 6 324 331 307 296 273 265 264 266 260 254 254 255 254 262 272 277 280 279 278 277 281 286 291 293 292 291 290 288 285 284 285
260 270 282 314 315 314 336 4 47 345 19 13 334 339 335 342 336 350 357 317 328 324 314 294 275 260 251 251 256 261 261 266 273 277 276 280 286 292 294 294 292 289 292 293 293 293 294 291 288
254 262 280 358 351 332 313 314 314 287 307 12 342 336 337 331 337 339 355 337 339 341 334 307 292 278 271 272 270 267 272 281 284 284 289 293 297 297 297 293 295 296 298 299 300 297 292 290 287
247 259 234 233 314 342 343 323 225 331 323 326 330 338 331 328 340 355 11 345 340 336 332 319 302 288 287 292 287 290 291 291 290 296 301 302 299 299 298 299 306 306 308 307 304 305 302 297 292
239 245 193 222 63 312 328 335 320 324 313 314 315 337 332 326 311 340 13 357 355 349 342 329 309 299 296 286 289 289 295 293 296 298 298 300 302 303 306 308 309 312 312 313 313 313 312 307 302
232 229 192 192 97 296 320 326 318 318 303 303 302 318 324 326 311 314 30 345 354 349 347 338 327 312 303 292 289 292 290 294 296 297 302 303 305 308 310 314 320 324 320 320 318 317 312 307 303
227 228 201 194 85 333 297 311 297 270 295 296 303 316 331 328 312 296 302 331 345 357 342 332 322 314 304 292 300 301 305 308 309 313 309 309 315 316 318 325 326 328 322 319 314 313 309 308 307
232 220 174 142 112 341 343 296 300 292 290 286 312 309 329 317 311 309 320 352 342 350 316 338 326 318 308 315 320 314 315 319 323 319 317 314 316 314 313 323 323 322 321 320 319 317 314 312 311
229 204 165 162 88 300 221 310 274 288 285 295 292 280 292 310 306 303 303 315 356 334 322 341 321 311 319 319 317 315 317 316 323 319 313 308 315 315 319 322 320 320 318 318 316 313 313 311 310
222 188 176 183 130 107 299 300 288 270 279 284 271 305 259 285 300 298 303 319 329 317 318 329 316 311 312 311 303 302 308 312 311 314 309 304 310 317 320 321 322 322 319 317 316 316 313 311 309
220 196 189 197 170 182 193 246 305 272 276 288 301 304 282 281 303 293 301 324 328 320 307 305 319 307 301 304 301 293 283 293 302 311 305 303 309 317 319 320 320 318 317 317 318 314 311 311 308
213 209 197 205 200 204 212 221 248 276 282 286 295 293 293 302 317 300 305 331 329 328 334 343 336 345 326 301 293 290 292 293 293 297 299 300 308 317 318 316 317 317 316 316 315 312 313 311 313
222 205 208 210 221 220 230 227 235 249 258 277 283 280 298 295 324 298 310 330 330 337 344 341 346 346 344 340 326 301 285 281 286 289 295 303 310 315 313 314 314 315 315 314 315 315 315 314 313
235 236 231 219 224 234 237 251 245 264 271 281 285 273 254 260 317 295 309 318 317 328 355 344 344 340 335 335 326 305 285 269 272 287 296 304 309 311 312 313 313 313 314 316 318 318 316 315 314
259 258 262 259 244 246 249 258 264 266 285 267 282 291 341 246 286 258 293 322 316 326 330 331 336 334 334 334 345 315 315 278 263 283 294 300 303 309 310 311 311 315 316 320 319 318 317 316 316
236 222 312 288 279 260 253 261 261 276 273 276 291 298 304 317 280 234 278 304 317 318 316 323 332 334 329 336 345 338 330 318 284 289 298 300 306 313 307 314 315 319 321 322 320 321 319 317 317
220 216 358 336 7 289 295 293 303 274 248 261 281 293 287 288 293 158 314 314 315 310 302 317 327 334 329 329 336 346 318 311 300 299 301 308 311 311 309 316 319 321 324 324 324 323 321 320 319
203 216 224 204 265 270 268 271 270 278 241 250 260 268 284 293 292 285 333 300 302 300 302 312 325 326 330 322 317 316 317 308 305 307 309 312 310 311 315 319 325 326 326 325 326 324 324 322 318
228 254 207 187 195 219 247 263 279 277 266 261 272 281 284 289 341 208 325 305 290 292 295 302 314 322 325 319 306 297 305 305 304 304 315 311 311 313 320 328 330 328 327 328 328 327 326 321 318
247 249 222 209 210 223 245 257 273 269 256 268 292 307 304 310 310 303 295 297 293 291 290 293 307 311 314 309 315 289 281 294 299 306 306 307 315 320 327 332 332 332 331 333 331 328 326 321 321
245 222 229 225 241 235 245 270 267 271 300 299 294 302 310 308 306 311 320 303 283 291 293 289 293 304 312 318 333 290 280 293 300 306 309 315 317 324 332 334 337 335 336 333 330 328 325 324 323
234 221 219 235 253 259 259 270 310 260 261 280 307 296 300 294 304 308 321 285 276 288 284 277 284 299 307 314 324 292 297 305 309 311 309 310 319 328 333 338 341 336 334 333 331 329 326 325 323
279 247 267 268 278 300 172 270 22 255 254 264 290 301 294 297 306 310 303 289 271 275 273 276 285 292 299 308 303 301 302 311 311 309 312 318 321 331 337 341 338 334 333 334 331 330 328 325 321
284 259 266 246 255 300 292 278 333 296 257 262 274 292 276 287 286 294 289 302 304 258 247 262 280 285 287 296 294 299 306 309 319 317 318 322 328 334 338 339 335 335 336 336 334 329 327 325 323
218 313 272 263 222 264 283 270 249 221 236 249 204 225 229 243 263 270 270 279 287 291 254 251 270 282 284 292 293 294 299 308 313 310 313 317 323 329 334 335 336 340 339 337 333 329 327 326 325
289 251 251 281 238 250 268 254 249 247 222 228 215 252 254 247 250 259 263 276 289 305 242 239 259 272 281 285 287 289 300 306 309 307 311 315 320 325 330 334 337 339 337 336 331 329 329 328 325
297 271 241 255 266 252 243 259 278 253 256 231 228 243 253 252 252 259 267 273 291 314 281 285 264 267 271 272 280 290 298 301 306 307 309 314 320 324 330 334 334 334 337 336 332 330 329 327 327
246 264 272 259 266 272 270 246 275 286 240 244 236 236 246 248 266 270 276 290 304 311 286 266 261 260 259 259 284 290 294 298 302 305 311 315 320 323 333 333 331 334 336 334 332 331 329 328 326
262 262 275 268 248 254 258 256 306 296 270 287 255 268 258 259 299 297 295 309 319 289 261 245 248 260 267 270 282 283 289 294 300 301 305 313 318 326 332 330 331 332 333 332 334 333 331 328 327